FW7501 Weather Reports


time (UTC)temp
C
wind
direction
speed
KPH
gust
KPH
rain 1hr
cm
rain 24hr
cm
rain mn
cm
humidity
%
barometer
mb
20260901133507 13 353 14.5 24.1 0.00 0.00 0.00 71 1014.2
20260901133028 13 337 12.9 20.9 0.00 0.00 0.00 71 1014.2
20260901132510 13 8 12.9 20.9 0.00 0.00 0.00 71 1014.3
20260901132004 13 21 12.9 20.9 0.00 0.00 0.00 70 1014.3
20260901131506 13 19 9.7 25.7 0.00 0.00 0.00 69 1014.4
20260901131006 13 327 14.5 25.7 0.00 0.00 0.00 68 1014.6
20260901130506 13 322 16.1 25.7 0.00 0.00 0.00 68 1014.4
20260901130018 13 3 16.1 25.7 0.00 0.00 0.00 68 1014.5
20260901125506 13 316 14.5 25.7 0.00 0.00 0.00 69 1014.5
20260901125008 13 335 14.5 30.6 0.00 0.00 0.00 69 1014.4
20260901124515 13 348 20.9 33.8 0.00 0.00 0.00 69 1014.4
20260901124010 13 342 20.9 33.8 0.00 0.00 0.00 68 1014.5
20260901123515 13 350 19.3 29.0 0.00 0.00 0.00 69 1014.4
20260901123019 13 352 19.3 30.6 0.00 0.00 0.00 69 1014.4
20260901122517 13 339 20.9 37.0 0.00 0.00 0.00 69 1014.5
20260901122012 13 12 20.9 37.0 0.00 0.00 0.00 69 1014.5
20260901121511 13 342 20.9 35.4 0.00 0.00 0.00 69 1014.6
20260901121015 14 349 20.9 37.0 0.00 0.00 0.00 68 1014.6
20260901120510 14 339 22.5 38.6 0.00 0.00 0.00 68 1014.6
20260901120048 14 337 24.1 38.6 0.00 0.00 0.00 68 1014.7
20260901115507 14 323 24.1 38.6 0.00 0.00 0.00 68 1014.9
20260901115014 14 325 24.1 37.0 0.00 0.00 0.00 68 1014.9
20260901114512 14 318 22.5 35.4 0.00 0.00 0.00 67 1015.0
20260901114007 15 322 22.5 41.8 0.00 0.00 0.00 67 1015.0
20260901113508 15 328 24.1 41.8 0.00 0.00 0.00 67 1015.2
20260901113018 15 352 20.9 37.0 0.00 0.00 0.00 67 1015.2
20260901112511 15 343 22.5 33.8 0.00 0.00 0.00 66 1015.1
20260901112011 14 339 19.3 32.2 0.00 0.00 0.00 67 1015.0
20260901111521 14 342 20.9 30.6 0.00 0.00 0.00 66 1014.8
20260901111008 15 332 17.7 37.0 0.00 0.00 0.00 66 1014.7
20260901110517 15 332 20.9 37.0 0.00 0.00 0.00 65 1014.6
20260901110019 15 347 19.3 30.6 0.00 0.00 0.00 65 1014.6
20260901105518 15 338 19.3 30.6 0.00 0.00 0.00 65 1014.6
20260901105017 15 350 19.3 33.8 0.00 0.00 0.00 64 1014.5
20260901104516 15 10 19.3 33.8 0.00 0.00 0.00 64 1014.4
20260901104022 15 341 19.3 33.8 0.00 0.00 0.00 64 1014.4
20260901103511 15 349 16.1 33.8 0.00 0.00 0.00 64 1014.5
20260901103018 15 343 24.1 33.8 0.00 0.00 0.00 63 1014.5
20260901102512 15 336 22.5 33.8 0.00 0.00 0.00 63 1014.3
20260901102013 15 336 20.9 33.8 0.00 0.00 0.00 63 1014.2
20260901101523 15 343 22.5 40.2 0.00 0.00 0.00 63 1014.3
20260901101013 15 14 22.5 40.2 0.00 0.00 0.00 62 1014.4
20260901100513 15 352 24.1 37.0 0.00 0.00 0.00 62 1014.5
20260901100026 16 345 22.5 38.6 0.00 0.00 0.00 61 1014.5
20260901095514 16 2 25.7 38.6 0.00 0.00 0.00 61 1014.3
20260901095010 16 335 22.5 43.5 0.00 0.00 0.00 61 1014.2
20260901094533 16 10 24.1 43.5 0.00 0.00 0.00 61 1014.2
20260901094013 16 18 19.3 40.2 0.00 0.00 0.00 61 1014.3
20260901093519 16 358 20.9 37.0 0.00 0.00 0.00 61 1014.4
20260901093027 16 62 17.7 33.8 0.00 0.00 0.00 62 1014.3
20260901092512 16 345 17.7 33.8 0.00 0.00 0.00 62 1014.3
20260901092011 16 349 17.7 32.2 0.00 0.00 0.00 62 1014.4
20260901091519 16 350 19.3 32.2 0.00 0.00 0.00 62 1014.5
20260901091009 16 32 14.5 29.0 0.00 0.00 0.00 62 1014.7
20260901090512 16 337 16.1 29.0 0.00 0.00 0.00 62 1014.8
20260901090023 16 23 12.9 27.4 0.00 0.00 0.00 63 1014.8
20260901085515 15 17 9.7 27.4 0.00 0.00 0.00 63 1014.8
20260901085014 15 341 9.7 25.7 0.00 0.00 0.00 63 1014.9
20260901084517 15 25 8.0 25.7 0.00 0.00 0.00 63 1014.9
20260901084014 15 355 9.7 32.2 0.00 0.00 0.00 63 1014.9
20260901083512 15 10 8.0 32.2 0.00 0.00 0.00 63 1014.9
20260901083035 15 21 9.7 24.1 0.00 0.00 0.00 63 1015.0
20260901082504 16 15 11.3 24.1 0.00 0.00 0.00 62 1015.2
20260901082010 16 347 14.5 24.1 0.00 0.00 0.00 62 1015.1
20260901081513 16 9 11.3 29.0 0.00 0.00 0.00 62 1015.1
20260901081004 16 16 11.3 29.0 0.00 0.00 0.00 62 1015.3
20260901080512 16 339 12.9 24.1 0.00 0.00 0.00 62 1015.4
20260901080009 16 360 14.5 24.1 0.00 0.00 0.00 61 1015.5
20260901075512 16 343 12.9 24.1 0.00 0.00 0.00 62 1015.5
20260901075009 16 355 12.9 29.0 0.00 0.00 0.00 61 1015.6
20260901074507 16 10 16.1 29.0 0.00 0.00 0.00 61 1015.6
20260901074004 16 10 14.5 24.1 0.00 0.00 0.00 62 1015.3
20260901073504 16 337 14.5 27.4 0.00 0.00 0.00 62 1015.3
20260901073006 16 341 17.7 32.2 0.00 0.00 0.00 61 1015.6
20260901072507 16 349 16.1 32.2 0.00 0.00 0.00 61 1015.4
20260901072006 16 341 16.1 27.4 0.00 0.00 0.00 61 1015.3
20260901071521 16 337 17.7 35.4 0.00 0.00 0.00 61 1015.4
20260901071008 16 329 17.7 35.4 0.00 0.00 0.00 61 1015.3
20260901070504 16 348 17.7 27.4 0.00 0.00 0.00 60 1015.2
20260901070023 16 343 20.9 35.4 0.00 0.00 0.00 59 1015.4
20260901065510 16 325 20.9 35.4 0.00 0.00 0.00 59 1015.3
20260901065004 16 333 19.3 35.4 0.00 0.00 0.00 58 1015.2
20260901064526 16 316 20.9 45.1 0.00 0.00 0.00 57 1015.1
20260901064007 16 344 24.1 45.1 0.00 0.00 0.00 57 1015.0
20260901063514 16 337 22.5 38.6 0.00 0.00 0.00 57 1015.0
20260901063015 16 352 20.9 46.7 0.00 0.00 0.00 57 1015.2
20260901062504 16 7 27.4 46.7 0.00 0.00 0.00 56 1015.2
20260901062011 17 345 24.1 43.5 0.00 0.00 0.00 56 1015.1
20260901061509 17 4 20.9 43.5 0.00 0.00 0.00 56 1014.8
20260901061008 17 339 20.9 43.5 0.00 0.00 0.00 57 1014.8
20260901060509 16 10 19.3 37.0 0.00 0.00 0.00 58 1014.8
20260901060012 16 24 16.1 41.8 0.00 0.00 0.00 59 1015.0
20260901055511 17 340 25.7 48.3 0.00 0.00 0.00 57 1014.9
20260901055014 17 339 24.1 49.9 0.00 0.00 0.00 57 1015.0
20260901054513 17 346 29.0 49.9 0.00 0.00 0.00 56 1015.1
20260901054013 17 23 25.7 45.1 0.00 0.00 0.00 57 1015.1
20260901053510 17 340 25.7 49.9 0.00 0.00 0.00 56 1015.1
20260901053037 17 1 29.0 51.5 0.00 0.00 0.00 56 1015.2
20260901052502 18 349 27.4 51.5 0.00 0.00 0.00 57 1015.2
20260901052007 17 341 25.7 45.1 0.00 0.00 0.00 57 1015.2
20260901051504 17 341 25.7 46.7 0.00 0.00 0.00 58 1015.2
20260901051003 17 328 24.1 49.9 0.00 0.00 0.00 55 1015.2
20260901050507 17 352 33.8 51.5 0.00 0.00 0.00 54 1015.3
20260901050004 17 333 32.2 57.9 0.00 0.00 0.00 55 1015.6
20260901045508 17 345 35.4 59.5 0.00 0.00 0.00 54 1015.4
20260901045004 17 348 33.8 59.5 0.00 0.00 0.00 55 1015.3
20260901044516 17 1 37.0 54.7 0.00 0.00 0.00 54 1015.2
20260901044008 18 330 33.8 53.1 0.00 0.00 0.00 56 1015.3
20260901043506 18 356 37.0 49.9 0.00 0.00 0.00 56 1015.2
20260901043017 18 352 30.6 53.1 0.00 0.00 0.00 57 1015.3
20260901042508 18 358 32.2 53.1 0.00 0.00 0.00 57 1015.2
20260901042004 18 349 27.4 53.1 0.00 0.00 0.00 59 1015.1
20260901041504 17 320 33.8 56.3 0.00 0.00 0.00 57 1015.1
20260901041003 17 337 37.0 59.5 0.00 0.00 0.00 57 1015.1
20260901040503 17 358 38.6 59.5 0.00 0.00 0.00 58 1015.4
20260901040006 17 330 32.2 61.2 0.00 0.00 0.00 58 1015.2
20260901035501 17 14 33.8 61.2 0.00 0.00 0.00 58 1015.1
20260901035008 17 7 37.0 61.2 0.00 0.00 0.00 58 1015.1
20260901034514 17 324 35.4 59.5 0.00 0.00 0.00 58 1015.3
20260901034010 17 339 38.6 59.5 0.00 0.00 0.00 57 1015.5
20260901033510 17 331 32.2 57.9 0.00 0.00 0.00 58 1015.5
20260901033008 17 341 35.4 56.3 0.00 0.00 0.00 58 1015.8
20260901032512 17 318 33.8 53.1 0.00 0.00 0.00 58 1015.9
20260901032009 17 332 27.4 72.4 0.00 0.00 0.00 60 1016.0
20260901031507 17 351 32.2 72.4 0.00 0.00 0.00 60 1016.2
20260901031011 17 318 43.5 70.8 0.00 0.00 0.00 59 1016.2
20260901030503 17 2 27.4 67.6 0.00 0.00 0.00 61 1016.7
20260901030005 17 341 32.2 67.6 0.00 0.00 0.00 59 1016.8
20260901025505 17 318 38.6 72.4 0.00 0.00 0.00 60 1016.7
20260901025010 16 20 32.2 72.4 0.00 0.00 0.00 61 1017.1
20260901024513 17 345 33.8 59.5 0.00 0.00 0.00 59 1017.2
20260901024011 17 348 37.0 59.5 0.00 0.00 0.00 60 1017.1
20260901023510 17 3 32.2 61.2 0.00 0.00 0.00 61 1017.3
20260901023024 16 341 29.0 61.2 0.00 0.00 0.00 62 1017.3
20260901022506 16 10 33.8 59.5 0.00 0.00 0.00 62 1017.3
20260901022011 16 4 29.0 49.9 0.00 0.00 0.00 63 1017.2
20260901021523 16 23 29.0 51.5 0.00 0.00 0.00 61 1017.3
20260901021006 16 345 30.6 54.7 0.00 0.00 0.00 62 1017.4
20260901020517 16 15 32.2 54.7 0.00 0.00 0.00 60 1017.6
20260901020016 16 21 27.4 48.3 0.00 0.00 0.00 63 1018.0
20260901015517 16 6 24.1 48.3 0.00 0.00 0.00 64 1018.2
20260901015014 16 12 29.0 49.9 0.00 0.00 0.00 63 1018.3
20260901014508 15 358 27.4 54.7 0.00 0.00 0.00 64 1018.6
20260901014008 15 359 29.0 56.3 0.00 0.00 0.00 63 1018.4
20260901013505 15 11 38.6 56.3 0.00 0.00 0.00 64 1018.5
20260901013007 15 11 25.7 54.7 0.00 0.00 0.00 66 1018.6
20260901012510 15 358 29.0 54.7 0.00 0.00 0.00 65 1018.6
20260901012010 15 353 33.8 54.7 0.00 0.00 0.00 65 1018.9
20260901011523 15 349 20.9 45.1 0.00 0.00 0.00 68 1019.1
20260901011015 15 354 25.7 49.9 0.00 0.00 0.00 67 1019.1
20260901010510 15 3 30.6 49.9 0.00 0.00 0.00 68 1019.1
20260901010025 15 350 25.7 45.1 0.00 0.00 0.00 69 1019.3
20260901005512 14 22 24.1 41.8 0.00 0.00 0.00 68 1019.3
20260901005018 14 25 22.5 57.9 0.00 0.00 0.00 70 1019.5
20260901004532 14 359 29.0 57.9 0.00 0.00 0.00 69 1019.6
20260901004011 14 333 24.1 48.3 0.00 0.00 0.00 71 1019.8
20260901003516 14 9 24.1 48.3 0.00 0.00 0.00 72 1019.6
20260901003024 13 332 24.1 41.8 0.00 0.00 0.00 73 1019.7
20260901002506 13 10 20.9 45.1 0.00 0.00 0.00 74 1020.0
20260901002012 13 13 27.4 45.1 0.00 0.00 0.00 73 1020.3
20260901001517 13 359 24.1 45.1 0.00 0.00 0.00 74 1020.3
20260901001014 13 16 19.3 41.8 0.00 0.00 0.00 75 1020.5
20260901000515 13 16 20.9 41.8 0.00 0.00 0.00 75 1020.6
20260901000014 13 7 20.9 38.6 0.00 0.00 0.00 75 1020.7
20260831235515 13 15 19.3 38.6 0.00 0.00 0.00 76 1020.8
20260831235013 13 20 12.9 40.2 0.00 0.00 0.00 77 1020.9
20260831234514 12 13 14.5 46.7 0.00 0.00 0.00 77 1021.1
20260831234017 12 353 17.7 49.9 0.00 0.00 0.00 78 1021.3
20260831233512 12 7 20.9 49.9 0.00 0.00 0.00 78 1021.4
20260831233030 12 18 27.4 48.3 0.00 0.00 0.00 78 1021.5
20260831232515 12 28 19.3 41.8 0.00 0.00 0.00 79 1021.5
20260831232015 12 4 25.7 49.9 0.00 0.00 0.00 79 1021.6
20260831231533 11 322 27.4 49.9 0.00 0.00 0.00 79 1021.7
20260831231010 11 8 20.9 40.2 0.00 0.00 0.00 80 1021.9
20260831230511 11 350 24.1 43.5 0.00 0.00 0.00 80 1021.8
20260831230023 11 359 29.0 43.5 0.00 0.00 0.00 80 1021.9
20260831225512 11 332 19.3 46.7 0.00 0.00 0.00 81 1021.9
20260831225018 11 343 27.4 46.7 0.00 0.00 0.00 81 1021.8
20260831224528 11 355 20.9 46.7 0.00 0.00 0.00 82 1021.7
20260831224011 11 353 29.0 46.7 0.00 0.00 0.00 82 1021.8
20260831223514 11 8 24.1 49.9 0.00 0.00 0.00 82 1021.8
20260831223027 11 2 20.9 49.9 0.00 0.00 0.00 82 1022.0
20260831222516 10 359 29.0 49.9 0.00 0.00 0.00 82 1022.0
20260831222015 10 339 27.4 41.8 0.00 0.00 0.00 83 1021.9
20260831221523 10 14 27.4 43.5 0.00 0.00 0.00 83 1022.0
20260831221019 10 2 27.4 43.5 0.00 0.00 0.00 84 1021.9
20260831220514 10 8 22.5 43.5 0.00 0.00 0.00 84 1022.0
20260831220017 10 320 25.7 41.8 0.00 0.00 0.00 84 1022.2
20260831215518 10 5 19.3 41.8 0.00 0.00 0.00 85 1022.2
20260831215017 10 352 22.5 40.2 0.00 0.00 0.00 85 1022.2
20260831214524 10 341 25.7 40.2 0.00 0.00 0.00 85 1022.0
20260831214011 10 354 22.5 38.6 0.00 0.00 0.00 85 1022.0
20260831213511 10 355 19.3 40.2 0.00 0.00 0.00 85 1022.1
20260831213028 10 336 24.1 40.2 0.00 0.00 0.00 86 1022.0
20260831212517 10 1 22.5 45.1 0.00 0.00 0.00 86 1021.9
20260831212015 10 3 29.0 45.1 0.00 0.00 0.00 86 1021.9
20260831211531 10 350 24.1 54.7 0.00 0.00 0.00 86 1021.7
20260831211015 10 350 27.4 54.7 0.00 0.00 0.00 86 1021.7
20260831210518 10 4 32.2 51.5 0.00 0.00 0.00 86 1021.7
20260831210030 10 26 24.1 46.7 0.00 0.00 0.00 86 1021.6
20260831205514 10 17 29.0 46.7 0.00 0.00 0.00 86 1021.7
20260831205019 10 36 25.7 48.3 0.00 0.00 0.00 86 1021.7
20260831204530 10 330 29.0 48.3 0.00 0.00 0.00 86 1021.7
20260831204018 10 344 24.1 38.6 0.00 0.00 0.00 86 1021.7
20260831203519 10 343 24.1 49.9 0.00 0.00 0.00 86 1021.7
20260831203025 10 351 30.6 49.9 0.00 0.00 0.00 86 1021.9
20260831202511 10 315 24.1 45.1 0.00 0.00 0.00 86 1021.9
20260831202003 10 16 27.4 45.1 0.00 0.00 0.00 86 1022.0
20260831201507 10 4 19.3 43.5 0.00 0.00 0.00 85 1021.8
20260831201003 10 327 24.1 43.5 0.00 0.00 0.00 85 1021.7
20260831200503 10 16 24.1 45.1 0.00 0.00 0.00 85 1021.5
20260831200015 10 353 24.1 45.1 0.00 0.00 0.00 85 1021.7
20260831195508 10 351 19.3 40.2 0.00 0.00 0.00 85 1021.8
20260831195010 10 8 19.3 41.8 0.00 0.00 0.00 85 1021.9
20260831194511 10 341 22.5 45.1 0.00 0.00 0.00 85 1021.8
20260831194004 10 345 22.5 45.1 0.00 0.00 0.00 85 1021.7
20260831193510 10 349 20.9 33.8 0.00 0.00 0.00 84 1021.7
20260831193024 10 340 19.3 38.6 0.00 0.00 0.00 84 1021.7
20260831192512 10 349 25.7 40.2 0.00 0.00 0.00 84 1021.7
20260831192020 10 4 24.1 40.2 0.00 0.00 0.00 84 1021.6
20260831191510 10 326 22.5 40.2 0.00 0.00 0.00 84 1021.5
20260831191016 10 328 19.3 32.2 0.00 0.00 0.00 85 1021.6
20260831190509 10 8 17.7 29.0 0.00 0.00 0.00 85 1021.7
20260831190008 10 357 17.7 30.6 0.00 0.00 0.00 85 1021.8
20260831185506 10 14 16.1 35.4 0.00 0.00 0.00 86 1022.0
20260831185006 10 337 17.7 37.0 0.00 0.00 0.00 85 1022.0
20260831184510 10 353 9.7 37.0 0.00 0.00 0.00 86 1021.9
20260831184008 10 354 14.5 30.6 0.00 0.00 0.00 86 1022.1
20260831183511 10 358 11.3 25.7 0.00 0.00 0.00 86 1022.1
20260831183018 10 346 9.7 25.7 0.00 0.00 0.00 86 1022.3
20260831182510 10 49 11.3 27.4 0.00 0.00 0.00 86 1022.4
20260831182006 10 335 11.3 27.4 0.00 0.00 0.00 86 1022.6
20260831181526 10 4 9.7 17.7 0.00 0.00 0.00 86 1022.6
20260831181010 10 45 4.8 14.5 0.00 0.00 0.00 85 1022.7
20260831180516 10 11 4.8 16.1 0.00 0.00 0.00 86 1022.6
20260831180038 10 338 9.7 16.1 0.00 0.00 0.00 85 1022.7
20260831175508 10 334 6.4 19.3 0.00 0.00 0.00 85 1022.7
20260831175014 10 336 9.7 17.7 0.00 0.00 0.00 85 1022.7
20260831174523 10 342 9.7 16.1 0.00 0.00 0.00 85 1022.5
20260831174022 10 342 11.3 20.9 0.00 0.00 0.00 85 1022.6
20260831173506 11 355 11.3 20.9 0.00 0.00 0.00 85 1022.6
20260831173015 11 354 9.7 20.9 0.00 0.00 0.00 85 1022.7
20260831172510 11 348 11.3 22.5 0.00 0.00 0.00 85 1022.8
20260831172014 11 7 9.7 24.1 0.00 0.00 0.00 85 1022.8
20260831171514 11 36 11.3 25.7 0.00 0.00 0.00 85 1022.9
20260831171010 11 337 12.9 25.7 0.00 0.00 0.00 84 1022.9
20260831170515 11 345 8.0 19.3 0.00 0.00 0.00 84 1023.0
20260831170028 11 31 6.4 27.4 0.00 0.00 0.00 84 1023.0
20260831165516 11 60 8.0 27.4 0.00 0.00 0.00 84 1023.2
20260831165010 11 25 8.0 19.3 0.00 0.00 0.00 84 1023.3
20260831164545 11 14 8.0 17.7 0.00 0.00 0.00 84 1023.4
20260831164013 11 359 8.0 17.7 0.00 0.00 0.00 84 1023.5
20260831163508 11 331 4.8 16.1 0.00 0.00 0.00 84 1023.6
20260831163026 11 120 4.8 16.1 0.00 0.00 0.00 84 1023.6
20260831162515 11 39 4.8 16.1 0.00 0.00 0.00 84 1023.6
20260831162006 11 58 3.2 14.5 0.00 0.00 0.00 84 1023.8
20260831161517 11 71 3.2 14.5 0.00 0.00 0.00 84 1023.9
20260831161010 11 2 3.2 14.5 0.00 0.00 0.00 84 1023.9
20260831160511 11 27 1.6 11.3 0.00 0.00 0.00 84 1024.0
20260831160024 11 27 1.6 11.3 0.00 0.00 0.00 84 1024.2
20260831155511 11 10 1.6 9.7 0.00 0.00 0.00 83 1024.3
20260831155016 11 168 0.0 9.7 0.00 0.00 0.00 83 1024.4
20260831154551 11 87 3.2 8.0 0.00 0.00 0.00 83 1024.6
20260831154020 11 33 3.2 11.3 0.00 0.00 0.00 83 1024.6
20260831153517 11 38 4.8 11.3 0.00 0.00 0.00 83 1024.6
20260831153018 11 69 3.2 20.9 0.00 0.00 0.00 83 1024.5
20260831152516 11 47 3.2 20.9 0.00 0.00 0.00 83 1024.5
20260831152012 11 16 4.8 17.7 0.00 0.00 0.00 83 1024.5
20260831151534 11 47 6.4 17.7 0.00 0.00 0.00 83 1024.5
20260831151018 11 351 4.8 16.1 0.00 0.00 0.00 83 1024.6
20260831150515 11 358 6.4 19.3 0.00 0.00 0.00 83 1024.6
20260831150018 11 77 8.0 19.3 0.00 0.00 0.00 83 1024.7
20260831145516 11 22 8.0 17.7 0.00 0.00 0.00 83 1024.8
20260831145013 11 17 6.4 19.3 0.00 0.00 0.00 83 1024.9
20260831144527 11 326 8.0 19.3 0.00 0.00 0.00 83 1025.0
20260831144016 11 36 6.4 17.7 0.00 0.00 0.00 82 1025.0
20260831143515 11 39 6.4 19.3 0.00 0.00 0.00 82 1025.1
20260831143033 11 39 4.8 20.9 0.00 0.00 0.00 82 1025.2
20260831142504 12 8 6.4 20.9 0.00 0.00 0.00 82 1025.3
20260831142003 12 360 8.0 17.7 0.00 0.00 0.00 82 1025.4
20260831141509 12 35 9.7 20.9 0.00 0.00 0.00 82 1025.4
20260831141004 12 330 6.4 20.9 0.00 0.00 0.00 82 1025.5
20260831140505 11 62 6.4 17.7 0.00 0.00 0.00 82 1025.6
20260831140007 11 346 6.4 17.7 0.00 0.00 0.00 82 1025.6
20260831135503 11 15 6.4 16.1 0.00 0.00 0.00 81 1025.7
20260831135003 11 29 6.4 16.1 0.00 0.00 0.00 81 1025.8
20260831134504 11 344 3.2 19.3 0.00 0.00 0.00 81 1026.0
20260831134000 11 45 4.8 19.3 0.00 0.00 0.00 81 1026.1